Location: Prague
(50.0830°N, 14.4670°E)
Time: 02:35:42
(UTC+01:00)

AO-7 - Pass Details

Date: 10 December 2021
Orbit: 1440 x 1459 km, 101.9° (Epoch: 28 January)

Event Time Altitude Azimuth Distance (km) Brightness Sun altitude
Rises 02:28:43 0° 28° (NNE) 4,552 ? -49.6°
Reaches altitude 10° 02:33:01 10° 49° (NE) 3,572 ? -49.0°
Maximum altitude 02:37:52 16° 85° (E) 3,095 ? -48.3°
Drops below altitude 10° 02:42:41 10° 121° (ESE) 3,568 ? -47.6°
Sets 02:46:56 0° 141° (SE) 4,544 ? -46.9°
